星链-31516 (STARLINK-31516 )

导读

STARLINK-31516是美国于2024年3月11日发射的星链卫星,隶属于SpaceX星链互联网星座计划。星链项目旨在搭建全球卫星互联网,为偏远地区、地面网络覆盖不足区域提供低延迟宽带服务,该卫星入轨后进一步扩充星链星座规模,推进星座全球组网布局。

基本信息
目录编号:
59221
目录名称:
STARLINK-31516
国际标识:
2024-046W
轨道中心:
EARTH
卫星名称:
星链-31516
卫星全名:
星链-31516 (STARLINK-31516 )
卫星状态:
在轨 (已飞行908 天)
发射日期:
2024-03-11 UTC
国别 :
美国 (US)
星等 :
--
轨道信息
数据来源 国际轨道数据 AOE轨道数据
星历时间 2026-09-05T17:39:14+0800
11小时前
查看轨道信息
2026-09-03T09:00:00+0800
2天前
查看轨道信息
半长轴 6841.119km 6840.847km
偏心率 0.0001451 0.0001279
轨道倾角 53.160° 53.161°
近地点辐角 81.318° 77.598°
升交点赤经 36.386° 47.422°
平近点角 278.798° 195.877°
近地点 461.989km 461.835km
远地点 463.975km 463.585km
周期 93.853分钟 93.848分钟
每日圈数 15.343064 15.343979
详细信息
固有亮度:
5
最大亮度:
0.3
卫星平台:
Starlink v2.0 mini
覆盖范围:
全球
运营商:
太空探索技术公司
运营商所在国:
美国
制造商(研发单位):
太空探索技术公司
制造商所在国:
美国
使用方式:
暂无
卫星简介
星链(Starlink)计划是由太空探索技术公司(SpaceX)提出的一个巨型低轨卫星互联网星座项目,计划在2019年至2024年间在太空搭建由约1.2万颗卫星组成的“星链”网络,其中1584颗将部署在地球上空550千米处的近地轨道,并从2020年开始工作。该卫星仍在工作。
2D轨道图
3D轨道图
轨道高度分析图
轨道倾角分析图
轨道综合分析图
查看轨道综合分析图
交会数据列表
事件ID 空间交会对象 最接近时刻(TCA) 交会距离 交会风险概率(CRP) 交会风险指数(CRI) 操作
CDM_260907-230705-922106-637521
2026-09-07T
23:07:24+0000
0.270 km
中距离
4.462502E-4 高风险 0.88
CDM_260907-112305-922106-637521
2026-09-07T
11:23:57+0000
0.542 km
远距离
1.132816E-4 高风险 0.76
CDM_260907-054705-922106-538021
2026-09-07T
05:47:13+0000
1.561 km
极远距离
4.853941E-6 低风险 0.49
CDM_260902-124505-922106-489122
OBJECT R (64891)
2026-09-02T
12:45:09+0000
1.846 km
极远距离
3.529701E-6 低风险 0.46
CDM_260907-151005-922106-538021
2026-09-07T
15:10:20+0000
2.097 km
极远距离
2.145795E-6 低风险 0.42
CDM_260907-095005-922106-637521
2026-09-07T
09:50:09+0000
2.225 km
极远距离
1.486442E-6 低风险 0.38
CDM_260902-133205-922106-489121
OBJECT R (64891)
2026-09-02T
13:32:04+0000
2.787 km
极远距离
1.467322E-6 低风险 0.38
CDM_260907-051605-922106-394321
2026-09-07T
05:16:51+0000
2.961 km
极远距离
1.25948E-6 低风险 0.37
CDM_260830-053105-922106-190324
OBJECT K (61903)
2026-08-30T
05:31:05+0000
2.965 km
极远距离
1.222547E-6 低风险 0.37
CDM_260908-004105-922106-637521
2026-09-08T
00:41:11+0000
2.628 km
极远距离
1.100534E-6 低风险 0.36